CAPE
0 1 0 0 4 1 0 0 0 0 0 0 0 0 0 0 0 0 0 0 0 0 0 0 0 0 0 0 0 0 0 0 3 250 770 1167 1230 1063 1026 739 71 0 0 0
2 2 0 0 0 0 0 0 0 0 0 0 0 0 0 0 0 0 0 0 0 0 0 0 0 0 0 0 0 0 0 0 26 323 783 1113 985 388 91 0 0 0 0 0
3 0 0 0 0 0 0 0 0 0 0 0 0 0 0 0 0 0 0 0 0 0 0 0 0 0 0 0 0 0 0 0 95 375 727 897 106 0 0 0 0 0 0 0
4 0 0 0 0 0 0 0 0 0 0 0 0 0 0 0 0 0 0 0 0 0 0 0 0 0 0 0 0 0 0 0 174 545 581 372 3 0 0 0 0 0 0 0
0 0 2 0 0 0 0 1 0 0 1 0 0 0 0 0 0 0 0 0 0 0 0 0 0 0 0 0 0 0 0 0 249 439 327 57 0 0 0 0 0 0 0 0
2 0 2 3 0 0 0 0 0 1 2 0 0 0 0 0 0 0 0 0 0 0 0 0 0 0 0 0 0 0 0 11 160 290 11 0 0 0 0 0 0 0 0 0
3 1 1 0 2 2 5 3 0 0 1 0 0 0 0 0 0 0 0 0 0 0 0 0 0 0 0 0 0 0 0 6 67 47 0 0 0 0 0 0 0 0 0 0
0 0 0 0 1 1 0 4 0 0 0 0 0 0 0 0 0 0 0 0 0 0 0 0 0 0 0 0 0 0 0 0 0 0 0 0 0 0 0 0 0 0 0 0
0 0 0 2 2 1 2 1 0 2 0 0 0 0 0 0 0 0 0 0 0 0 0 0 0 0 0 0 0 0 0 0 0 0 0 0 0 0 0 0 0 0 0 0
1 0 0 3 4 0 1 1 0 0 1 0 0 0 0 0 0 0 0 1 5 0 0 0 0 0 0 0 0 0 0 0 0 0 0 0 0 0 0 0 0 0 0 0
0 1 0 0 1 0 0 3 2 1 1 1 0 0 0 0 0 0 12 19 20 3 0 0 0 0 0 0 0 0 0 0 0 0 0 0 0 0 0 0 0 0 0 0
1 0 0 0 0 0 2 0 1 2 0 0 0 0 0 0 0 26 30 30 7 0 0 0 0 0 0 0 2 4 1 0 0 0 0 0 0 0 0 0 0 0 0 0
0 1 0 0 0 0 0 0 0 1 0 0 1 0 0 0 0 1 41 6 0 0 0 0 0 0 1 6 2 2 0 0 0 0 0 0 0 0 0 0 0 0 0 0
2 2 0 0 0 0 0 1 0 0 0 0 0 0 0 2 6 0 0 6 2 3 0 0 0 0 3 1 0 1 0 0 0 0 0 0 0 0 0 0 0 0 0 0
1 0 2 1 0 0 0 1 0 1 0 0 0 0 0 1 2 2 4 5 0 0 3 2 0 0 0 0 0 0 0 0 0 0 0 0 0 0 0 0 0 0 0 0
3 0 2 0 0 0 1 0 1 2 1 1 0 0 0 0 0 0 0 2 3 2 1 6 0 0 0 0 0 0 0 0 0 0 0 0 0 0 0 0 0 0 0 0
7 3 0 0 0 0 1 0 2 2 4 2 0 0 3 0 0 1 0 0 0 10 15 10 0 0 0 0 0 0 0 0 0 0 0 0 0 0 0 0 0 0 0 0
3 6 9 0 0 0 0 0 0 1 1 3 2 2 11 5 0 0 1 0 1 1 8 0 0 0 0 0 0 0 0 0 0 0 0 0 0 0 0 0 0 0 0 0
1 6 1 2 1 0 0 0 0 0 0 0 0 0 3 3 2 1 0 0 1 0 0 0 0 0 0 0 0 0 0 0 0 0 0 0 0 0 0 0 0 0 0 0
5 8 5 2 0 0 0 0 0 1 0 0 0 0 0 0 3 1 1 0 0 0 0 0 0 0 0 0 0 0 0 0 0 0 0 0 0 0 0 0 0 0 0 0
1 0 0 0 1 0 0 0 0 1 0 0 0 0 0 0 1 2 1 0 0 0 0 0 0 0 0 0 0 0 0 0 0 0 0 0 0 0 0 0 0 0 0 0
0 0 0 1 0 0 0 0 0 0 0 0 0 0 0 0 0 0 0 0 0 0 0 0 0 0 0 0 0 0 0 0 0 0 0 0 0 0 0 0 0 0 0 0
0 0 2 1 0 1 0 0 0 0 0 0 0 0 0 0 0 0 0 0 0 0 0 0 0 0 0 0 0 0 0 0 0 0 0 0 0 0 0 0 0 0 0 0
0 0 0 0 2 0 0 0 0 0 0 0 0 0 0 0 0 0 0 0 0 0 0 0 0 0 0 0 0 0 0 0 0 0 0 0 0 0 0 0 0 0 0 0
2 0 0 0 0 0 0 0 0 0 0 0 0 0 0 0 0 0 0 0 0 0 0 0 0 0 0 0 0 0 0 0 0 0 0 0 0 0 0 0 0 0 0 0
0 0 0 0 0 0 0 0 0 0 0 0 0 0 0 0 0 0 0 0 0 0 0 0 0 0 0 0 0 0 0 0 0 0 0 0 0 0 0 0 0 0 0 0
CIN
0 0 0 0 -2 -2 0 0 0 0 0 0 0 0 0 0 0 0 0 0 0 0 0 0 0 0 0 0 0 0 0 0 -159 -117 -69 -20 -17 -16 -8 -16 -175 0 0 0
-2 0 0 0 0 0 0 0 0 0 0 0 0 0 0 0 0 0 0 0 0 0 0 0 0 0 0 0 0 0 0 0 -211 -104 -78 -21 -43 -143 -260 0 0 0 0 0
-1 0 0 0 0 0 0 0 0 0 0 0 0 0 0 0 0 0 0 0 0 0 0 0 0 0 0 0 0 0 0 0 -164 -100 -73 -43 -129 0 0 0 0 0 0 0
-1 -4 0 0 0 0 0 0 0 0 0 0 0 0 0 0 0 0 0 0 0 0 0 0 0 0 0 0 0 0 0 0 -125 -92 -106 -195 -154 0 0 0 0 0 0 0
0 0 0 0 0 -1 0 -1 0 -1 -2 0 0 0 0 0 0 0 0 0 0 0 0 0 0 0 0 0 0 0 0 0 -106 -116 -136 -343 0 0 0 0 0 0 0 0
-2 -1 -1 -2 -1 -2 -1 -1 -1 -1 -1 0 0 0 0 0 0 0 0 0 0 0 0 0 0 0 0 0 0 0 0 -137 -152 -124 -152 0 0 0 0 0 0 0 0 0
-1 -1 0 -1 -1 -1 -1 -1 0 -1 0 0 0 0 0 0 0 0 0 0 0 0 0 0 0 0 0 0 0 0 0 -312 -244 -307 0 0 -22 0 0 0 0 0 0 0
0 -1 -1 0 -1 -1 0 -1 0 0 0 0 0 0 0 0 0 0 0 0 0 0 0 0 0 0 0 0 0 0 0 0 0 0 0 -1 0 0 0 0 0 0 0 0
0 0 0 -1 -1 -1 -1 -2 -1 -1 -3 0 0 0 0 0 0 0 0 0 0 -1 0 0 0 0 0 0 0 0 0 0 0 0 0 0 0 0 0 0 0 0 0 0
-2 0 0 -1 -1 -1 -1 -1 0 0 0 0 0 0 0 0 -4 0 0 -9 -10 -1 0 0 0 0 0 0 0 0 0 0 0 0 0 0 0 0 0 0 0 0 0 0
0 -1 0 -2 0 0 -1 0 -1 -1 -2 -1 0 0 0 0 0 0 -10 -17 -26 -30 0 0 0 0 0 0 0 0 0 0 0 0 0 0 0 0 0 0 0 0 0 0
-1 0 0 0 0 0 -2 0 0 -1 0 0 0 0 0 0 0 -4 -1 -4 -31 0 0 0 0 0 0 0 -1 -1 -1 0 0 0 0 0 0 0 0 0 0 0 0 0
-1 0 0 0 0 0 0 0 0 0 0 0 0 0 0 0 0 -6 -4 -3 -1 0 0 0 0 0 0 -2 -5 -1 0 0 0 0 0 0 0 0 0 0 0 0 0 0
-2 -1 0 0 0 -1 0 -1 0 0 0 0 0 0 0 -5 -9 0 0 -9 -4 -7 -1 0 0 0 -1 -6 0 -1 0 0 0 0 0 0 0 0 0 0 0 0 0 0
-1 0 0 0 0 0 0 0 0 0 0 0 0 0 0 -2 -7 -9 -4 -5 -2 0 -12 -87 0 0 -1 0 0 0 0 0 0 0 0 0 0 0 0 0 0 0 0 0
-2 -1 0 0 0 0 -1 0 0 0 0 0 0 0 0 0 0 0 0 -1 -1 -1 -1 -98 0 0 0 0 0 0 0 0 0 0 0 0 0 0 0 0 0 0 0 0
0 0 -1 0 0 0 0 0 0 0 0 0 0 0 -2 -2 -2 -2 0 0 -1 -1 -1 -1 0 0 0 0 0 0 0 0 0 0 0 0 0 0 0 0 0 0 0 0
-1 0 0 0 0 0 0 0 0 0 0 0 0 0 -1 -1 -3 0 -4 -1 -2 -1 -4 -1 0 0 0 0 0 0 0 0 0 0 0 0 0 0 0 0 0 0 0 0
-5 0 0 0 0 0 0 0 0 0 0 0 0 -1 -1 -1 -1 -1 0 0 0 0 -2 0 0 0 0 0 0 0 0 0 0 0 0 0 0 0 0 0 0 0 0 0
-3 -2 0 -2 0 0 0 0 0 -1 -1 0 0 0 0 0 0 0 0 0 0 0 0 0 0 0 0 0 0 0 0 0 0 0 0 0 0 0 0 0 0 0 0 0
0 0 0 0 0 0 0 0 0 -2 0 0 0 0 0 0 0 0 0 0 0 0 0 0 0 0 0 0 0 0 0 0 0 0 0 0 0 0 0 0 0 0 0 0
0 0 0 0 0 0 0 0 0 0 0 0 0 0 0 0 0 0 0 0 0 0 0 0 0 0 0 0 0 0 0 0 0 0 0 0 0 0 0 0 0 0 0 0
-1 -1 -4 -2 -5 -4 0 0 0 0 0 0 0 0 0 0 0 0 0 0 0 0 0 0 0 0 0 0 0 0 0 0 0 0 0 0 0 0 0 0 0 0 0 0
0 0 0 0 -2 0 0 0 0 0 0 0 0 0 0 0 0 0 0 0 0 0 0 0 0 0 0 0 0 0 0 0 0 0 0 0 0 0 0 0 0 0 0 0
-1 0 0 0 0 0 0 0 0 0 0 0 0 0 0 0 0 0 0 0 0 0 0 0 0 0 0 0 0 0 0 0 0 0 0 0 0 0 0 0 0 0 0 0
0 0 0 -1 0 0 0 0 0 0 0 0 0 0 0 0 0 0 0 0 0 0 0 0 0 0 0 0 0 0 0 0 0 0 0 0 0 0 0 0 0 0 0 0
Wind_Speed
19 22 25 26 28 32 30 30 31 30 29 37 41 44 41 40 39 36 33 29 28 25 21 22 23 35 36 31 25 22 20 19 18 18 18 17 17 14 14 12 11 9 8 8
19 27 28 27 28 29 30 33 35 34 32 35 40 50 49 49 46 38 35 32 31 29 24 24 22 23 36 34 30 27 24 22 20 18 18 18 16 16 14 14 11 9 9 7
23 21 23 28 25 26 29 31 33 36 37 40 44 52 38 32 30 32 33 35 35 34 31 27 26 25 27 36 34 29 27 23 21 19 17 15 14 15 18 15 12 10 9 8
26 25 23 23 26 26 32 29 30 33 35 37 27 50 44 42 41 33 30 30 30 29 28 30 33 30 28 30 34 33 29 26 23 20 19 17 17 17 19 15 12 10 9 7
22 22 24 26 25 23 26 25 29 32 37 44 41 41 50 33 38 35 34 30 28 30 31 29 29 31 35 32 31 31 30 28 24 21 20 18 17 16 13 13 12 9 8 7
28 19 21 21 21 21 22 27 30 32 34 44 42 36 55 43 43 41 35 30 26 31 31 31 31 32 31 32 33 29 30 27 24 22 21 19 17 14 12 13 13 10 7 6
27 31 22 21 23 21 22 25 32 34 34 41 34 35 38 36 41 30 28 24 36 32 34 36 37 34 34 31 31 28 29 27 23 21 21 18 15 14 12 11 12 10 8 7
21 23 16 14 17 21 18 20 27 38 39 43 36 40 35 29 29 29 28 31 32 35 34 35 36 36 33 31 29 28 29 28 24 21 20 17 14 13 11 10 10 9 7 6
19 23 17 12 14 13 18 21 22 36 39 41 36 39 38 32 38 38 33 29 31 28 31 33 35 35 33 32 30 26 28 26 24 20 18 15 13 12 11 9 8 7 5 4
20 23 16 14 15 16 15 21 23 22 33 38 33 33 34 34 38 35 29 25 24 26 30 32 33 34 32 30 28 26 26 24 21 19 17 15 12 11 9 8 8 6 5 4
16 19 16 15 14 12 12 15 18 22 16 30 30 22 30 35 31 32 20 22 27 29 31 32 32 31 30 28 25 23 24 22 19 17 15 13 11 10 9 8 7 6 4 4
12 17 20 20 17 14 10 9 6 9 18 21 26 28 32 25 28 23 23 25 27 27 29 31 31 28 26 25 22 20 20 19 17 14 13 12 10 9 8 7 6 4 3 4
9 19 22 22 20 8 5 5 10 15 18 21 23 22 21 23 19 29 21 28 29 29 31 31 28 26 25 22 20 17 17 17 15 13 12 10 9 8 7 6 5 3 4 5
12 22 25 27 26 28 20 11 10 12 14 20 22 29 21 17 15 17 23 38 36 33 30 29 26 26 23 21 18 15 15 15 13 12 10 9 8 7 6 4 3 3 4 6
23 27 29 30 33 25 22 21 17 14 16 18 26 23 22 16 15 7 16 30 36 31 28 28 27 25 22 20 16 13 14 13 12 11 10 8 6 5 4 2 2 3 5 8
24 25 26 27 23 11 21 20 10 7 9 11 15 19 13 7 7 4 9 18 27 32 31 25 25 23 22 18 14 14 13 11 11 10 8 7 5 4 3 1 3 5 9 10
23 23 23 23 27 27 2 12 1 1 1 4 6 9 5 5 3 4 3 19 25 28 26 26 23 23 20 17 14 12 11 10 10 8 6 5 5 4 1 3 4 8 10 12
22 21 20 22 18 8 20 2 6 8 7 10 6 6 4 3 8 9 6 19 22 25 28 25 21 19 15 11 10 10 10 9 8 6 5 5 2 1 4 5 7 10 12 14
27 22 21 20 16 16 10 14 11 15 11 14 12 10 7 7 8 10 7 12 18 24 29 24 14 11 9 7 8 10 9 8 6 4 3 3 3 3 4 7 9 12 13 15
27 25 21 18 19 13 14 8 18 15 13 27 13 12 18 17 18 17 11 13 15 16 17 11 7 6 8 8 9 10 9 7 5 4 1 2 4 6 7 9 11 12 14 17
17 20 22 21 18 15 10 8 16 16 9 10 4 16 21 22 22 23 24 18 14 4 9 15 12 10 12 11 10 9 6 7 2 2 4 5 7 9 10 10 12 14 17 19
17 15 16 15 17 18 11 7 14 8 13 25 17 19 21 23 22 24 22 22 23 18 15 7 9 8 6 6 4 5 5 5 5 6 7 9 10 10 11 12 14 17 19 21
22 25 17 11 13 9 5 5 9 5 3 5 15 14 19 21 22 26 27 27 26 26 21 13 14 14 10 7 7 10 8 8 9 10 10 10 11 12 13 15 17 19 21 23
24 24 22 21 11 4 11 7 12 16 14 19 14 12 14 15 17 19 19 19 20 21 21 18 17 15 12 11 11 12 12 12 11 10 11 11 12 14 15 17 19 20 22 25
23 17 20 11 13 11 16 23 20 19 20 19 16 14 13 14 14 15 15 15 16 15 16 17 16 15 15 15 14 13 12 11 11 11 12 13 14 15 17 19 20 22 22 24
25 24 13 17 20 18 21 21 19 18 18 17 15 14 14 14 15 15 16 16 15 15 15 14 15 15 15 14 13 12 12 12 12 12 13 14 15 16 18 20 21 20 22 24
Wind_Direction
257 258 258 261 262 266 274 274 275 279 285 284 281 280 282 283 283 283 283 283 280 278 279 274 270 266 262 259 255 251 252 253 258 260 262 264 266 272 271 271 278 275 286 291
260 258 259 267 268 269 271 273 275 281 287 287 286 278 282 278 279 282 282 280 281 281 274 270 266 260 261 259 257 255 253 253 251 257 261 263 266 273 268 277 274 274 283 287
257 269 266 261 267 270 273 276 280 281 287 287 287 282 289 293 291 288 284 282 281 279 277 272 266 260 259 259 256 254 252 251 249 251 255 258 269 273 272 271 269 271 280 284
258 263 269 267 268 273 276 284 285 287 291 289 301 285 287 290 290 290 291 291 289 286 282 276 272 267 260 258 257 256 253 249 248 245 246 243 254 259 267 259 261 263 276 277
264 268 265 268 274 279 282 296 293 294 292 291 290 288 287 299 293 291 290 289 289 288 286 280 277 270 267 265 256 254 253 250 246 242 246 250 258 262 261 257 254 259 266 273
261 280 278 281 288 287 303 299 299 298 297 290 293 284 288 297 297 295 293 280 291 291 289 285 280 277 270 263 262 250 249 247 243 241 246 248 250 250 248 248 252 252 255 262
267 265 282 284 287 298 296 303 298 297 295 294 305 294 290 301 306 304 301 283 296 293 291 286 279 275 271 263 255 252 247 243 238 238 244 245 242 243 243 232 242 237 246 262
271 277 276 295 287 302 296 299 302 299 299 300 304 297 301 310 310 307 299 293 294 294 289 290 285 275 270 263 256 248 245 242 239 237 239 241 237 247 243 240 237 235 241 255
281 285 305 310 313 298 309 300 311 303 304 303 304 303 303 301 301 296 286 291 294 296 299 289 289 278 268 262 257 247 243 238 237 234 235 234 238 235 229 231 223 231 246 256
290 289 305 311 310 305 303 324 315 312 311 310 316 312 311 312 306 303 299 288 291 300 303 302 291 281 267 261 254 247 240 234 231 229 230 234 236 235 225 225 216 222 250 263
292 296 310 314 306 308 307 311 317 320 317 319 316 314 331 317 313 307 297 292 292 295 301 305 297 285 265 260 252 242 235 229 223 221 225 226 228 220 220 218 226 231 242 280
297 306 299 303 317 323 308 319 249 298 324 317 311 290 325 326 311 304 299 295 296 297 301 304 300 285 265 256 245 237 227 223 218 216 218 221 214 210 211 216 218 226 254 296
296 293 294 303 309 329 325 273 263 271 283 281 289 295 340 347 328 302 295 296 293 296 298 298 298 278 258 250 240 231 222 214 214 215 213 211 204 205 199 218 228 245 289 308
309 271 249 274 297 310 288 310 288 277 280 271 276 280 297 290 268 247 295 289 282 296 297 297 289 265 250 243 235 224 216 214 210 207 203 197 197 193 204 207 236 282 314 315
257 250 246 247 258 252 250 253 252 263 263 266 273 279 279 279 259 250 229 246 272 286 288 289 269 252 240 234 227 217 215 209 200 192 185 187 193 195 193 231 282 311 313 324
259 252 282 256 248 225 253 259 264 268 259 273 273 274 278 280 249 258 233 218 231 264 273 279 256 240 230 228 224 215 208 197 181 179 179 178 179 176 195 268 314 328 325 325
255 270 278 264 296 277 199 33 77 66 318 336 315 276 286 269 296 10 34 224 231 237 265 253 239 228 224 226 219 203 189 178 173 173 187 176 160 146 353 335 343 325 323 329
260 274 295 253 269 189 347 120 118 71 63 46 354 290 235 244 239 232 235 234 216 212 231 221 223 219 220 213 195 174 173 170 164 167 182 189 212 90 317 329 329 328 333 331
207 260 276 280 241 236 216 287 73 59 64 56 50 56 84 120 113 134 181 195 184 185 181 201 211 208 196 177 157 152 149 149 154 162 151 138 50 17 353 335 341 340 336 337
203 198 266 297 278 233 281 256 51 68 78 32 61 74 76 97 94 117 141 153 163 178 188 195 181 153 131 134 137 136 137 132 130 151 99 15 25 9 4 352 350 350 346 342
253 252 189 208 220 217 211 92 54 56 78 292 117 83 79 87 96 105 111 137 154 149 79 89 93 98 105 112 115 126 165 104 106 72 45 15 2 5 14 10 0 352 346 343
261 272 276 293 304 305 109 92 68 68 264 336 39 61 75 92 113 93 57 53 63 63 70 91 96 98 111 120 125 95 82 73 63 44 39 35 29 20 13 5 356 350 347 344
252 234 279 326 339 178 187 178 216 94 144 39 24 59 90 68 101 89 80 79 78 84 73 68 77 79 74 73 78 79 68 67 65 58 43 32 24 16 8 359 353 349 346 344
251 258 271 291 43 192 234 56 44 34 53 31 53 40 55 57 60 59 63 71 72 73 79 78 78 73 67 65 68 73 74 71 62 47 34 24 14 7 1 357 353 349 348 344
270 289 290 296 224 15 3 348 358 5 16 19 45 62 53 60 54 57 59 62 69 69 70 75 75 71 74 75 70 67 66 57 44 33 25 18 13 5 360 357 354 352 352 350
273 277 302 313 328 338 338 339 350 356 356 7 34 53 48 59 62 70 73 72 73 75 74 69 70 74 74 72 65 58 52 48 41 32 23 15 10 5 1 357 353 357 355 352